Location: ?????
(54.9266°N, 38.5527°E)
Time: 06:43:17
(UTC+00:00)

Cosmos 921 Rocket - Visible Passes

Search period start: 16 July 2024 00:00
Search period end: 26 July 2024 00:00
Orbit: 568 x 625 km, 75.8° (Epoch: 15 July)

Date Brightness Start Highest point End Pass type
(mag) Time Alt. Az. Time Alt. Az. Time Alt. Az.
16 Jul 4.6 18:45:46 10° NW 18:49:22 28° WSW 18:52:58 10° SSW visible
17 Jul 5.2 18:56:27 10° NW 18:59:26 19° W 19:02:26 10° SW visible
18 Jul 5.6 19:07:33 10° WNW 19:09:27 13° W 19:11:19 10° WSW visible
